Location: Baumgarten
(49.0970°N, 12.7493°E)
Time: 19:06:29
(UTC+00:00)

Cosmos 1538 Rocket - Pass Details

Date: 05 July 2020
Orbit: 753 x 791 km, 74.0° (Epoch: 12 August)

Event Time Altitude Azimuth Distance (km) Brightness Sun altitude
Exits shadow 20:35:05 - 182° (S) 2,732 6.4 -10.0°
Reaches altitude 10° 20:36:07 10° 179° (S) 2,346 6.0 -10.1°
Maximum altitude 20:41:15 49° 106° (ESE) 1,010 4.3 -10.6°
Drops below altitude 10° 20:46:22 10° 33° (NNE) 2,345 6.8 -11.1°
Sets 20:48:48 0° 28° (NNE) 3,271 7.7 -11.3°
